timestamp,wind_dir_avg,wind_spd_avg,wind_spd_max_dir,wind_spd_gust,battery_voltage,lat,long
2020-12-18 00:04:01+00:00,32.0,4.92,28.0,5.71,12.57,47.59359,-54.27349
2020-12-18 00:14:01+00:00,39.0,5.15,42.0,6.07,12.49,47.59359,-54.27349
2020-12-18 00:24:01+00:00,30.0,4.33,27.0,4.92,12.49,47.59359,-54.27349
2020-12-18 00:34:01+00:00,28.0,5.44,30.0,6.29,12.49,47.59359,-54.27349
2020-12-18 00:44:01+00:00,29.0,5.55,32.0,6.01,12.49,47.59359,-54.27349
2020-12-18 00:54:01+00:00,27.0,5.28,25.0,6.24,12.49,47.59359,-54.27349
2020-12-18 01:04:01+00:00,23.0,5.37,25.0,6.35,12.49,47.59359,-54.27349
2020-12-18 01:14:01+00:00,38.0,5.33,38.0,6.84,12.49,47.59359,-54.27349
2020-12-18 01:24:01+00:00,31.0,5.87,32.0,6.82,12.49,47.59359,-54.27349
2020-12-18 01:34:01+00:00,45.0,4.72,45.0,6.37,12.49,47.59359,-54.27349
2020-12-18 01:44:01+00:00,52.0,5.1,49.0,5.8,12.49,47.59359,-54.27349
2020-12-18 01:54:01+00:00,75.0,3.9,76.0,4.36,12.49,47.59359,-54.27349
2020-12-18 02:04:01+00:00,64.0,4.58,59.0,5.28,12.49,47.59359,-54.27349
2020-12-18 02:14:01+00:00,47.0,5.48,46.0,6.04,12.49,47.59359,-54.27349
2020-12-18 02:24:01+00:00,51.0,6.78,55.0,7.96,12.49,47.59359,-54.27349
2020-12-18 02:34:01+00:00,45.0,7.47,44.0,8.46,12.49,47.59359,-54.27349
2020-12-18 02:44:01+00:00,55.0,7.23,54.0,8.27,12.49,47.59359,-54.27349
2020-12-18 02:54:01+00:00,42.0,7.23,47.0,8.56,12.49,47.59359,-54.27349
2020-12-18 03:04:01+00:00,52.0,6.99,50.0,8.03,12.49,47.59359,-54.27349
2020-12-18 03:14:01+00:00,59.0,6.11,66.0,7.14,12.33,47.59359,-54.27349
2020-12-18 03:24:01+00:00,45.0,6.51,47.0,7.37,12.33,47.59359,-54.27349
2020-12-18 03:34:01+00:00,61.0,5.94,59.0,7.87,12.33,47.59359,-54.27349
2020-12-18 03:44:01+00:00,60.0,5.98,65.0,7.66,12.33,47.59359,-54.27349
2020-12-18 03:54:01+00:00,60.0,6.54,63.0,7.44,12.33,47.59359,-54.27349
2020-12-18 04:04:01+00:00,60.0,6.16,62.0,7.0,12.33,47.59359,-54.27349
2020-12-18 04:14:01+00:00,61.0,6.78,62.0,7.4,12.41,47.59359,-54.27349
2020-12-18 04:24:01+00:00,64.0,7.56,67.0,8.93,12.41,47.59359,-54.27349
2020-12-18 04:34:01+00:00,45.0,8.06,51.0,9.41,12.41,47.59359,-54.27349
2020-12-18 04:44:01+00:00,51.0,8.62,53.0,9.49,12.41,47.59359,-54.27349
2020-12-18 04:54:01+00:00,51.0,8.09,46.0,9.02,12.41,47.59359,-54.27349
2020-12-18 05:04:01+00:00,56.0,8.78,57.0,9.62,12.41,47.59359,-54.27349
2020-12-18 05:14:01+00:00,59.0,7.86,66.0,8.77,12.33,47.59359,-54.27349
2020-12-18 05:24:01+00:00,58.0,8.6,52.0,9.63,12.33,47.59359,-54.27349
2020-12-18 05:34:01+00:00,62.0,8.93,67.0,10.92,12.33,47.59359,-54.27349
2020-12-18 05:44:01+00:00,52.0,8.98,54.0,9.98,12.33,47.59359,-54.27349
2020-12-18 05:54:01+00:00,53.0,8.84,53.0,10.33,12.33,47.59359,-54.27349
2020-12-18 06:04:01+00:00,48.0,8.42,56.0,10.61,12.33,47.59359,-54.27349
2020-12-18 06:14:01+00:00,42.0,8.6,36.0,10.72,12.33,47.59359,-54.27349
2020-12-18 06:24:01+00:00,48.0,8.83,55.0,9.74,12.33,47.59359,-54.27349
2020-12-18 06:34:01+00:00,50.0,9.08,50.0,10.19,12.33,47.59359,-54.27349
2020-12-18 06:44:01+00:00,51.0,8.64,48.0,10.89,12.33,47.59359,-54.27349
2020-12-18 06:54:01+00:00,42.0,9.42,38.0,11.02,12.33,47.59359,-54.27349
2020-12-18 07:04:01+00:00,43.0,10.23,38.0,11.76,12.33,47.59359,-54.27349
2020-12-18 07:14:01+00:00,52.0,9.67,56.0,11.11,12.33,47.59359,-54.27349
2020-12-18 07:24:01+00:00,35.0,9.92,36.0,11.28,12.33,47.59359,-54.27349
2020-12-18 07:34:01+00:00,38.0,10.62,36.0,11.44,12.33,47.59359,-54.27349
2020-12-18 07:44:01+00:00,46.0,10.61,46.0,12.54,12.33,47.59359,-54.27349
2020-12-18 07:54:01+00:00,44.0,10.2,48.0,12.18,12.33,47.59359,-54.27349
2020-12-18 08:04:01+00:00,43.0,10.89,41.0,12.9,12.33,47.59359,-54.27349
2020-12-18 08:14:01+00:00,39.0,10.71,41.0,13.82,12.33,47.59359,-54.27349
2020-12-18 08:24:01+00:00,45.0,10.99,47.0,12.7,12.33,47.59359,-54.27349
2020-12-18 08:34:01+00:00,46.0,9.76,42.0,11.15,12.33,47.59359,-54.27349
2020-12-18 08:44:01+00:00,42.0,12.18,42.0,13.55,12.33,47.59359,-54.27349
2020-12-18 08:54:01+00:00,49.0,10.19,51.0,12.49,12.33,47.59359,-54.27349
2020-12-18 09:04:01+00:00,48.0,9.98,49.0,12.2,12.33,47.59359,-54.27349
2020-12-18 09:14:01+00:00,50.0,11.71,57.0,13.49,12.17,47.59359,-54.27349
2020-12-18 09:24:01+00:00,50.0,9.7,50.0,13.41,12.17,47.59359,-54.27349
2020-12-18 09:34:01+00:00,50.0,10.87,53.0,13.01,12.17,47.59359,-54.27349
2020-12-18 09:44:01+00:00,57.0,11.8,60.0,13.1,12.17,47.59359,-54.27349
2020-12-18 09:54:01+00:00,56.0,12.12,51.0,13.65,12.17,47.59359,-54.27349
2020-12-18 10:04:01+00:00,60.0,11.36,55.0,13.48,12.17,47.59359,-54.27349
2020-12-18 10:14:01+00:00,49.0,11.24,46.0,12.66,12.17,47.59359,-54.27349
2020-12-18 10:24:01+00:00,52.0,11.24,52.0,12.7,12.17,47.59359,-54.27349
2020-12-18 10:34:01+00:00,47.0,11.43,52.0,13.21,12.17,47.59359,-54.27349
2020-12-18 10:44:01+00:00,49.0,12.11,47.0,13.58,12.17,47.59359,-54.27349
2020-12-18 10:54:01+00:00,49.0,10.42,46.0,12.83,12.17,47.59359,-54.27349
2020-12-18 11:04:01+00:00,58.0,12.83,59.0,14.42,12.17,47.59359,-54.27349
2020-12-18 11:14:01+00:00,53.0,12.46,50.0,14.1,12.09,47.59359,-54.27349
2020-12-18 11:24:01+00:00,50.0,12.44,51.0,14.56,12.09,47.59359,-54.27349
2020-12-18 11:34:01+00:00,50.0,11.95,58.0,13.66,12.09,47.59359,-54.27349
2020-12-18 11:44:01+00:00,49.0,12.86,51.0,14.8,12.09,47.59359,-54.27349
2020-12-18 11:54:01+00:00,43.0,11.47,40.0,13.33,12.09,47.59359,-54.27349
2020-12-18 12:04:01+00:00,53.0,11.71,54.0,14.49,12.09,47.59359,-54.27349
2020-12-18 12:14:01+00:00,47.0,12.28,47.0,13.79,12.17,47.59359,-54.27349
2020-12-18 12:24:01+00:00,48.0,13.07,53.0,14.25,12.17,47.59359,-54.27349
2020-12-18 12:34:01+00:00,43.0,11.59,35.0,13.48,12.17,47.59359,-54.27349
2020-12-18 12:44:01+00:00,53.0,11.8,55.0,13.15,12.17,47.59359,-54.27349
2020-12-18 12:54:01+00:00,47.0,11.85,39.0,14.09,12.17,47.59359,-54.27349
2020-12-18 13:04:01+00:00,47.0,10.75,49.0,13.02,12.17,47.59359,-54.27349
2020-12-18 13:14:01+00:00,47.0,10.61,48.0,11.58,12.25,47.59359,-54.27349
2020-12-18 13:24:01+00:00,46.0,10.55,49.0,12.49,12.25,47.59359,-54.27349
2020-12-18 13:34:01+00:00,52.0,12.25,55.0,13.99,12.25,47.59359,-54.27349
2020-12-18 13:44:01+00:00,45.0,11.25,48.0,13.25,12.25,47.59359,-54.27349
2020-12-18 13:54:01+00:00,49.0,11.9,47.0,13.13,12.25,47.59359,-54.27349
2020-12-18 14:04:01+00:00,54.0,10.25,56.0,12.26,12.25,47.59359,-54.27349
2020-12-18 14:14:01+00:00,45.0,11.3,43.0,13.09,12.41,47.59359,-54.27349
2020-12-18 14:24:01+00:00,43.0,11.35,44.0,13.11,12.41,47.59359,-54.27349
2020-12-18 14:34:01+00:00,51.0,9.77,54.0,10.75,12.41,47.59359,-54.27349
2020-12-18 14:44:01+00:00,61.0,10.6,59.0,12.13,12.41,47.59359,-54.27349
2020-12-18 14:54:01+00:00,41.0,11.67,41.0,13.56,12.41,47.59359,-54.27349
2020-12-18 15:04:01+00:00,45.0,11.46,47.0,13.75,12.41,47.59359,-54.27349
2020-12-18 15:14:01+00:00,43.0,10.43,36.0,12.18,12.97,47.59359,-54.27349
2020-12-18 15:24:01+00:00,51.0,11.02,52.0,12.61,12.97,47.59359,-54.27349
2020-12-18 15:34:01+00:00,56.0,11.3,61.0,13.03,12.97,47.59359,-54.27349
2020-12-18 15:44:01+00:00,39.0,12.03,36.0,13.12,12.97,47.59359,-54.27349
2020-12-18 15:54:01+00:00,53.0,10.79,52.0,12.71,12.97,47.59359,-54.27349
2020-12-18 16:04:01+00:00,51.0,11.1,43.0,12.82,12.97,47.59359,-54.27349
2020-12-18 16:14:01+00:00,67.0,10.0,70.0,11.84,13.68,47.59359,-54.27349
2020-12-18 16:24:01+00:00,51.0,9.51,56.0,10.82,13.68,47.59359,-54.27349
2020-12-18 16:34:01+00:00,45.0,10.64,46.0,12.22,13.68,47.59359,-54.27349
2020-12-18 16:44:01+00:00,42.0,10.28,32.0,12.34,13.68,47.59359,-54.27349
2020-12-18 16:54:01+00:00,36.0,10.16,44.0,12.59,13.68,47.59359,-54.27349
2020-12-18 17:04:01+00:00,51.0,10.56,51.0,12.82,13.68,47.59359,-54.27349
2020-12-18 17:14:01+00:00,44.0,11.75,53.0,12.82,13.05,47.59359,-54.27349
2020-12-18 17:24:01+00:00,50.0,10.99,52.0,12.87,13.05,47.59359,-54.27349
2020-12-18 17:34:01+00:00,50.0,11.58,52.0,13.28,13.05,47.59359,-54.27349
2020-12-18 17:44:01+00:00,61.0,10.76,60.0,11.9,13.05,47.59359,-54.27349
2020-12-18 17:54:01+00:00,60.0,9.75,62.0,11.11,13.05,47.59359,-54.27349
2020-12-18 18:04:01+00:00,32.0,12.13,31.0,13.46,13.05,47.59359,-54.27349
2020-12-18 18:14:01+00:00,35.0,11.92,35.0,13.18,13.29,47.59359,-54.27349
2020-12-18 18:24:01+00:00,37.0,12.24,39.0,13.85,13.29,47.59359,-54.27349
2020-12-18 18:34:01+00:00,37.0,11.57,35.0,12.91,13.29,47.59359,-54.27349
2020-12-18 18:44:01+00:00,50.0,12.15,46.0,14.35,13.29,47.59359,-54.27349
2020-12-18 18:54:01+00:00,43.0,11.53,45.0,13.83,13.29,47.59359,-54.27349
2020-12-18 19:04:01+00:00,45.0,13.56,45.0,14.95,13.29,47.59359,-54.27349
2020-12-18 19:14:01+00:00,35.0,12.81,36.0,14.35,12.97,47.59359,-54.27349
2020-12-18 19:24:01+00:00,42.0,12.1,39.0,14.21,12.97,47.59359,-54.27349
2020-12-18 19:34:01+00:00,48.0,12.24,49.0,13.55,12.97,47.59359,-54.27349
2020-12-18 19:44:01+00:00,40.0,10.97,36.0,12.45,12.97,47.59359,-54.27349
2020-12-18 19:54:01+00:00,40.0,11.67,36.0,13.32,12.97,47.59359,-54.27349
2020-12-18 20:04:01+00:00,40.0,10.85,45.0,12.78,12.97,47.59359,-54.27349
2020-12-18 20:14:01+00:00,37.0,11.3,39.0,12.88,12.65,47.59359,-54.27349
2020-12-18 20:24:01+00:00,34.0,11.29,35.0,12.33,12.65,47.59359,-54.27349
2020-12-18 20:34:01+00:00,33.0,11.48,33.0,13.15,12.65,47.59359,-54.27349
2020-12-18 20:44:01+00:00,37.0,11.15,35.0,13.12,12.65,47.59359,-54.27349
2020-12-18 20:54:01+00:00,35.0,12.35,36.0,14.31,12.65,47.59359,-54.27349
2020-12-18 21:04:01+00:00,43.0,11.89,51.0,14.14,12.65,47.59359,-54.27349
2020-12-18 21:14:01+00:00,38.0,12.41,40.0,14.01,12.65,47.59359,-54.27349
2020-12-18 21:24:01+00:00,48.0,14.17,44.0,16.51,12.65,47.59359,-54.27349
2020-12-18 21:34:01+00:00,44.0,12.73,46.0,15.0,12.65,47.59359,-54.27349
2020-12-18 21:44:01+00:00,39.0,14.07,43.0,16.09,12.65,47.59359,-54.27349
2020-12-18 21:54:01+00:00,49.0,12.18,48.0,15.77,12.65,47.59359,-54.27349
2020-12-18 22:04:01+00:00,52.0,13.08,52.0,14.77,12.65,47.59359,-54.27349
2020-12-18 22:14:01+00:00,49.0,11.61,49.0,14.55,12.57,47.59359,-54.27349
2020-12-18 22:24:01+00:00,48.0,14.03,51.0,15.79,12.57,47.59359,-54.27349
2020-12-18 22:34:01+00:00,44.0,13.57,31.0,15.74,12.57,47.59359,-54.27349
2020-12-18 22:44:01+00:00,47.0,12.25,48.0,13.76,12.57,47.59359,-54.27349
2020-12-18 22:54:01+00:00,50.0,11.26,46.0,13.82,12.57,47.59359,-54.27349
2020-12-18 23:04:01+00:00,45.0,13.14,49.0,17.14,12.57,47.59359,-54.27349
2020-12-18 23:14:01+00:00,50.0,12.92,50.0,15.1,12.57,47.59359,-54.27349
2020-12-18 23:24:01+00:00,50.0,11.53,56.0,14.91,12.57,47.59359,-54.27349
2020-12-18 23:34:01+00:00,52.0,12.79,55.0,15.46,12.57,47.59359,-54.27349
2020-12-18 23:44:01+00:00,54.0,13.5,50.0,16.48,12.57,47.59359,-54.27349
2020-12-18 23:54:01+00:00,42.0,13.7,45.0,17.32,12.57,47.59359,-54.27349
